Location: Austin
(30.3000°N, 97.7500°W)
Time: 19:40:11
(UTC-06:00)

Thor Agena Rocket - Pass Details

Date: 31 October 2024
Orbit: 757 x 803 km, 99.1° (Epoch: 05 November)

Event Time Altitude Azimuth Distance (km) Brightness Sun altitude
Rises 06:29:39 0° 1° (N) 3,302 6.7 -16.7°
Reaches altitude 10° 06:32:09 10° 353° (N) 2,364 5.9 -16.2°
Maximum altitude 06:36:50 35° 289° (WNW) 1,255 4.1 -15.2°
Drops below altitude 10° 06:41:28 10° 225° (SW) 2,327 5.7 -14.2°
Sets 06:43:55 0° 216° (SW) 3,244 6.5 -13.7°
